Location: Arroyo Retuerta
(40.5469°N, 4.3534°W)
Time: 02:10:43
(UTC+00:00)

Envisat - Pass Details

Date: 27 July 2021
Orbit: 764 x 766 km, 98.2° (Epoch: 22 September)

Event Time Altitude Azimuth Distance (km) Brightness Sun altitude
Rises 04:31:04 0° 28° (NNE) 3,241 7.5 -7.2°
Reaches altitude 10° 04:33:58 10° 45° (NE) 2,309 7.1 -6.8°
Maximum altitude 04:37:42 20° 93° (E) 1,705 5.7 -6.2°
Drops below altitude 10° 04:41:23 10° 140° (SE) 2,296 5.6 -5.6°
Sets 04:44:15 0° 157° (SSE) 3,216 6.2 -5.1°
